Temp
6 5 4 4 4 3 3 2 1 1 -1 -1 -1 -2 -2 -2 -2 -2 -2 -2 -3 -3 -2 -3 -3 -3 -4 -4 -3 -3 -2 -2 -2 -2 -1 -1 -1 -0 -0 -0 -1 -1 -0
5 4 4 4 3 2 2 1 -0 -1 -1 -1 -2 -2 -2 -2 -2 -2 -3 -3 -3 -3 -3 -3 -3 -3 -3 -3 -4 -3 -3 -3 -3 -2 -2 -2 -2 -1 -1 -1 -1 -1 -0
5 4 4 3 2 1 1 -0 -1 -1 -1 -2 -2 -2 -2 -3 -3 -3 -3 -3 -3 -3 -3 -4 -4 -4 -4 -4 -4 -4 -4 -4 -4 -4 -4 -4 -3 -3 -2 -2 -2 -1 -1
5 4 3 3 2 1 0 -0 -1 -1 -2 -2 -2 -3 -3 -3 -3 -4 -4 -4 -4 -5 -5 -5 -5 -5 -5 -5 -5 -5 -5 -5 -5 -5 -5 -5 -4 -4 -3 -3 -2 -2 -2
3 2 3 3 2 1 -0 -1 -2 -2 -2 -2 -3 -3 -4 -4 -4 -4 -5 -5 -6 -6 -6 -7 -7 -6 -6 -6 -6 -6 -6 -6 -6 -7 -7 -6 -5 -4 -4 -3 -3 -3 -3
3 2 2 1 0 -1 -0 -1 -2 -2 -2 -3 -3 -4 -4 -4 -5 -6 -6 -6 -7 -8 -8 -8 -8 -8 -7 -7 -7 -7 -7 -7 -7 -8 -8 -8 -7 -7 -6 -6 -6 -5 -5
4 4 2 1 -0 -2 -1 -2 -2 -2 -3 -3 -3 -4 -5 -5 -6 -6 -7 -8 -9 -9 -10 -9 -9 -9 -8 -8 -8 -8 -8 -7 -8 -8 -8 -8 -8 -8 -7 -6 -6 -6 -6
4 3 1 -1 -1 -1 -2 -2 -2 -3 -3 -3 -4 -5 -5 -5 -6 -8 -8 -9 -9 -10 -10 -10 -10 -10 -9 -9 -9 -9 -9 -8 -8 -8 -8 -8 -8 -8 -8 -8 -8 -7 -7
3 2 0 -1 -1 -2 -2 -2 -3 -3 -3 -4 -5 -5 -6 -7 -8 -8 -9 -9 -10 -10 -10 -11 -10 -10 -10 -9 -9 -9 -9 -8 -8 -9 -9 -8 -8 -8 -8 -8 -8 -8 -8
0 -0 -1 -2 -2 -2 -3 -3 -3 -3 -4 -5 -5 -5 -7 -7 -8 -9 -9 -10 -11 -11 -11 -11 -10 -10 -10 -9 -9 -9 -9 -9 -9 -9 -8 -8 -8 -9 -8 -8 -8 -8 -8
-1 -1 -2 -2 -3 -3 -3 -3 -3 -4 -4 -5 -6 -6 -7 -8 -9 -10 -10 -11 -12 -12 -12 -11 -11 -10 -10 -10 -10 -10 -10 -10 -10 -10 -10 -9 -9 -9 -9 -9 -8 -8 -8
-2 -3 -3 -3 -4 -3 -3 -3 -4 -4 -5 -6 -6 -8 -9 -9 -10 -10 -11 -12 -12 -12 -12 -12 -11 -11 -11 -11 -11 -11 -11 -11 -11 -10 -10 -9 -9 -9 -8 -8 -8 -8 -8
-3 -4 -3 -4 -4 -4 -4 -4 -4 -5 -6 -6 -8 -9 -10 -10 -11 -12 -12 -12 -13 -13 -13 -12 -11 -11 -11 -11 -11 -11 -11 -11 -10 -10 -10 -9 -9 -9 -8 -8 -7 -7 -7
-4 -4 -4 -4 -4 -4 -4 -4 -5 -6 -6 -7 -9 -10 -10 -11 -12 -13 -13 -14 -13 -13 -12 -12 -12 -12 -12 -11 -11 -11 -11 -11 -10 -10 -10 -9 -9 -8 -8 -8 -7 -7 -7
-5 -5 -5 -5 -4 -5 -5 -5 -6 -7 -7 -8 -9 -10 -11 -11 -13 -14 -14 -14 -14 -13 -13 -13 -13 -13 -12 -12 -12 -12 -12 -11 -11 -11 -10 -10 -9 -9 -8 -7 -7 -7 -7
-6 -5 -6 -6 -6 -6 -6 -6 -7 -8 -8 -9 -9 -10 -10 -12 -13 -14 -14 -14 -14 -13 -13 -13 -13 -13 -13 -13 -13 -13 -12 -12 -12 -11 -11 -10 -10 -9 -8 -8 -7 -7 -7
-6 -6 -7 -6 -6 -7 -7 -7 -8 -9 -9 -9 -9 -10 -11 -12 -13 -14 -14 -14 -14 -14 -14 -14 -14 -14 -14 -14 -14 -13 -13 -12 -12 -12 -11 -11 -10 -9 -9 -8 -8 -8 -7
-6 -7 -7 -7 -7 -7 -8 -8 -9 -9 -9 -9 -10 -10 -11 -11 -12 -13 -14 -14 -14 -14 -14 -15 -15 -14 -14 -14 -14 -14 -13 -13 -13 -12 -12 -11 -11 -10 -10 -10 -9 -9 -8
-6 -6 -6 -8 -8 -8 -9 -9 -9 -9 -9 -9 -10 -10 -11 -11 -12 -13 -14 -14 -15 -15 -15 -15 -15 -15 -15 -15 -15 -14 -14 -13 -13 -13 -12 -12 -11 -11 -10 -10 -10 -10 -9
-6 -6 -7 -8 -8 -9 -9 -9 -9 -9 -10 -10 -10 -10 -11 -12 -12 -13 -14 -14 -15 -15 -15 -15 -15 -15 -15 -15 -15 -15 -14 -14 -14 -13 -13 -12 -12 -11 -11 -11 -10 -10 -10
-7 -7 -8 -9 -9 -9 -9 -9 -9 -10 -10 -10 -10 -11 -11 -12 -13 -13 -14 -14 -15 -14 -14 -14 -15 -14 -14 -14 -14 -14 -14 -14 -14 -13 -13 -13 -13 -12 -11 -11 -11 -11 -11
-7 -8 -9 -9 -9 -9 -9 -9 -10 -10 -10 -10 -10 -11 -11 -12 -12 -13 -14 -14 -15 -14 -14 -14 -14 -14 -14 -14 -13 -13 -13 -13 -13 -13 -13 -14 -13 -13 -12 -12 -12 -12 -12
-9 -9 -9 -9 -9 -9 -9 -10 -10 -10 -10 -10 -10 -11 -11 -12 -12 -13 -14 -14 -15 -14 -13 -13 -13 -13 -13 -13 -13 -13 -13 -13 -13 -13 -13 -14 -14 -14 -13 -13 -12 -13 -13
-9 -9 -9 -9 -9 -9 -9 -9 -9 -10 -10 -10 -10 -10 -11 -11 -12 -13 -13 -14 -14 -14 -13 -13 -13 -13 -13 -13 -13 -13 -14 -14 -13 -13 -14 -13 -14 -14 -14 -14 -13 -13 -13
-8 -9 -9 -9 -9 -9 -9 -9 -9 -10 -10 -10 -10 -10 -11 -11 -12 -13 -13 -14 -14 -14 -13 -13 -13 -13 -13 -13 -13 -14 -14 -14 -14 -14 -13 -13 -13 -13 -14 -14 -13 -14 -14
-8 -9 -9 -9 -9 -9 -9 -9 -9 -10 -10 -10 -10 -10 -11 -11 -12 -13 -13 -13 -13 -13 -14 -13 -13 -13 -14 -13 -14 -14 -14 -14 -14 -14 -14 -13 -13 -13 -13 -13 -14 -14 -14
Height
1528 1527 1525 1523 1521 1520 1517 1512 1509 1506 1504 1501 1498 1494 1491 1488 1485 1481 1477 1474 1471 1470 1468 1465 1462 1461 1459 1458 1457 1455 1454 1453 1448 1446 1447 1445 1444 1444 1443 1441 1442 1442 1446
1527 1525 1523 1521 1518 1515 1512 1509 1506 1502 1500 1497 1494 1492 1489 1486 1482 1478 1475 1472 1469 1465 1464 1462 1459 1458 1456 1454 1452 1451 1449 1447 1445 1441 1440 1440 1440 1439 1440 1440 1443 1441 1442
1523 1520 1518 1515 1512 1509 1509 1505 1503 1500 1497 1493 1491 1489 1485 1482 1479 1475 1472 1468 1463 1460 1458 1456 1454 1453 1450 1448 1446 1444 1442 1441 1439 1436 1434 1434 1434 1434 1433 1433 1435 1436 1437
1519 1515 1511 1507 1504 1503 1502 1500 1499 1497 1494 1491 1488 1485 1482 1478 1475 1470 1466 1462 1459 1456 1453 1451 1448 1446 1444 1442 1439 1438 1436 1435 1434 1432 1429 1428 1429 1429 1429 1429 1429 1430 1430
1512 1513 1507 1503 1497 1492 1493 1493 1494 1492 1490 1487 1484 1482 1478 1474 1470 1465 1461 1457 1453 1449 1446 1443 1441 1438 1436 1435 1433 1431 1429 1428 1427 1426 1424 1424 1424 1424 1424 1423 1422 1422 1423
1508 1506 1503 1497 1497 1492 1488 1487 1489 1488 1486 1483 1480 1477 1474 1470 1465 1460 1456 1452 1448 1443 1438 1435 1433 1431 1429 1428 1425 1424 1423 1421 1420 1419 1418 1418 1417 1417 1415 1415 1415 1415 1415
1502 1499 1495 1487 1488 1488 1487 1481 1483 1483 1482 1479 1476 1473 1468 1465 1460 1455 1450 1446 1442 1438 1433 1429 1425 1424 1422 1420 1417 1415 1414 1413 1413 1412 1411 1411 1410 1410 1410 1409 1409 1409 1410
1500 1494 1487 1484 1482 1484 1482 1476 1477 1479 1477 1474 1471 1468 1464 1460 1456 1451 1445 1441 1436 1432 1428 1423 1420 1416 1415 1413 1411 1408 1407 1407 1407 1406 1405 1403 1404 1404 1404 1403 1403 1402 1402
1495 1488 1483 1480 1478 1480 1479 1474 1473 1474 1472 1469 1466 1463 1459 1454 1449 1444 1439 1434 1430 1426 1422 1418 1415 1411 1409 1406 1404 1402 1400 1399 1400 1399 1398 1397 1396 1397 1397 1396 1395 1396 1395
1491 1486 1481 1479 1476 1475 1472 1472 1472 1470 1468 1464 1461 1458 1454 1450 1445 1441 1435 1430 1426 1421 1417 1413 1410 1407 1403 1400 1398 1396 1394 1393 1392 1391 1391 1389 1388 1387 1387 1388 1388 1387 1389
1487 1483 1479 1474 1470 1470 1469 1469 1469 1467 1464 1460 1456 1454 1450 1446 1441 1437 1431 1426 1422 1417 1412 1407 1404 1402 1398 1395 1393 1391 1389 1387 1385 1383 1381 1380 1379 1378 1378 1378 1380 1380 1381
1484 1480 1477 1474 1471 1468 1467 1468 1466 1463 1459 1456 1453 1450 1447 1442 1438 1434 1427 1423 1418 1413 1408 1404 1400 1397 1394 1391 1388 1385 1383 1381 1379 1378 1377 1376 1375 1374 1373 1372 1373 1374 1374
1481 1477 1474 1471 1469 1467 1466 1465 1462 1459 1456 1454 1450 1447 1442 1438 1433 1428 1423 1419 1414 1409 1404 1400 1396 1393 1390 1387 1385 1382 1380 1378 1376 1376 1375 1373 1372 1370 1369 1369 1369 1369 1369
1477 1474 1472 1470 1468 1466 1464 1462 1459 1456 1454 1451 1448 1443 1438 1433 1428 1423 1418 1414 1410 1405 1401 1398 1395 1391 1388 1386 1383 1381 1378 1377 1375 1374 1372 1371 1369 1368 1366 1366 1364 1364 1363
1475 1472 1469 1467 1465 1463 1461 1460 1457 1455 1452 1449 1445 1441 1436 1431 1426 1422 1418 1413 1409 1405 1401 1398 1394 1391 1388 1385 1383 1380 1378 1376 1374 1373 1371 1369 1368 1366 1365 1364 1362 1362 1361
1471 1469 1467 1464 1463 1461 1460 1458 1455 1453 1449 1446 1442 1438 1434 1430 1425 1420 1416 1412 1409 1404 1401 1398 1395 1392 1389 1387 1384 1382 1379 1377 1374 1372 1370 1369 1367 1366 1364 1363 1361 1361 1360
1468 1466 1464 1462 1460 1458 1457 1455 1452 1450 1447 1444 1440 1436 1432 1428 1424 1420 1415 1411 1408 1405 1401 1398 1396 1393 1391 1388 1385 1382 1380 1377 1375 1372 1371 1369 1367 1366 1365 1363 1361 1360 1359
1465 1464 1461 1460 1458 1456 1454 1452 1450 1448 1445 1443 1439 1436 1431 1428 1423 1419 1415 1411 1408 1405 1402 1399 1397 1394 1391 1389 1386 1383 1380 1378 1375 1373 1371 1369 1368 1366 1365 1364 1362 1361 1359
1463 1460 1458 1455 1454 1453 1451 1450 1448 1446 1444 1442 1439 1436 1432 1428 1422 1419 1415 1412 1408 1405 1402 1400 1397 1395 1392 1389 1386 1384 1381 1378 1376 1374 1372 1370 1369 1367 1366 1364 1363 1361 1360
1460 1457 1455 1452 1451 1451 1449 1447 1446 1444 1442 1440 1437 1433 1430 1426 1421 1418 1415 1412 1409 1405 1403 1400 1397 1395 1392 1389 1386 1384 1381 1379 1376 1374 1372 1371 1369 1367 1366 1365 1363 1362 1360
1457 1454 1452 1450 1449 1448 1446 1445 1443 1441 1439 1437 1435 1431 1428 1425 1421 1418 1415 1412 1408 1405 1402 1400 1397 1395 1392 1389 1387 1384 1381 1379 1376 1374 1372 1371 1369 1367 1366 1365 1363 1362 1360
1450 1448 1448 1447 1446 1445 1444 1442 1440 1438 1436 1434 1432 1430 1426 1423 1420 1417 1414 1411 1408 1405 1403 1400 1397 1395 1392 1390 1387 1385 1382 1379 1377 1374 1373 1371 1369 1368 1366 1365 1364 1362 1359
1446 1445 1444 1443 1443 1442 1440 1439 1437 1436 1434 1432 1430 1427 1425 1422 1419 1416 1413 1410 1407 1404 1402 1400 1397 1395 1393 1391 1388 1385 1383 1380 1377 1375 1373 1371 1368 1367 1366 1365 1363 1361 1359
1442 1442 1441 1440 1439 1438 1437 1436 1435 1432 1430 1429 1427 1425 1423 1420 1417 1414 1412 1409 1406 1403 1401 1399 1397 1395 1392 1390 1388 1386 1383 1380 1378 1376 1373 1370 1368 1367 1366 1363 1362 1360 1358
1439 1438 1437 1436 1436 1435 1434 1433 1431 1429 1428 1426 1424 1422 1420 1417 1415 1412 1410 1407 1404 1402 1400 1398 1396 1394 1392 1389 1387 1385 1382 1380 1377 1375 1373 1370 1368 1366 1364 1362 1361 1360 1358
1436 1434 1433 1433 1432 1431 1430 1429 1427 1425 1424 1422 1421 1419 1417 1414 1412 1410 1407 1405 1402 1400 1398 1396 1394 1392 1390 1388 1386 1384 1381 1379 1377 1374 1372 1369 1367 1365 1364 1362 1360 1358 1357
Wind_Speed
17 15 14 16 17 17 16 19 24 30 24 22 23 26 25 26 25 24 25 25 23 23 22 22 22 20 20 20 22 20 22 22 26 26 21 20 20 16 16 20 19 17 17
14 15 18 18 17 17 20 23 24 21 21 20 21 23 24 22 22 23 24 24 25 23 22 23 26 25 25 24 21 21 21 21 24 29 25 23 24 25 23 20 19 19 21
16 18 18 19 20 20 20 19 19 19 20 21 23 23 24 23 23 23 23 20 20 22 23 26 24 26 27 28 26 26 25 22 23 23 25 24 24 23 25 23 22 22 21
23 19 17 20 18 16 16 20 18 20 22 22 22 22 22 23 24 24 22 25 29 33 36 30 30 26 26 26 25 21 24 27 28 30 31 28 25 26 24 26 28 27 29
21 26 23 23 18 14 16 17 19 20 21 20 22 23 24 24 23 25 30 32 33 35 37 33 27 26 28 26 26 27 25 26 29 30 30 25 23 22 22 19 17 15 16
23 27 28 23 17 13 20 14 16 20 20 22 22 24 23 21 24 29 32 33 34 36 39 34 25 26 26 25 23 25 25 26 26 27 27 27 29 27 27 22 20 19 20
29 23 21 24 21 15 16 11 14 19 21 23 25 22 19 19 24 32 35 36 36 37 30 27 29 28 27 26 24 25 26 22 22 25 25 29 30 27 28 33 32 26 23
35 32 29 19 11 15 15 10 14 18 22 24 22 21 22 29 33 30 32 31 35 32 27 27 27 27 26 25 26 27 26 27 29 26 29 28 26 24 25 25 25 27 30
40 31 29 19 13 16 13 11 13 21 23 20 21 23 28 32 32 28 27 33 29 31 30 24 24 26 26 22 23 24 24 23 21 21 25 27 25 26 29 32 35 33 34
30 30 26 22 13 15 11 12 17 20 18 24 28 28 32 30 25 26 29 27 28 31 30 28 26 24 27 25 23 23 24 23 20 27 30 33 34 33 29 24 27 31 33
30 27 23 18 13 11 9 16 18 19 20 22 26 28 27 23 24 24 27 24 25 30 29 27 23 23 22 24 24 25 27 28 30 30 27 23 18 17 19 21 28 28 26
30 27 25 21 12 9 13 16 17 19 18 22 26 25 23 21 27 25 22 23 30 26 26 24 26 24 22 22 21 14 16 19 16 10 13 17 18 18 17 13 17 21 24
26 22 18 17 12 13 14 18 17 16 18 25 26 27 25 27 25 22 28 28 24 25 22 22 15 16 19 13 13 14 12 10 14 12 13 13 14 15 15 14 15 16 20
21 20 16 15 14 13 13 15 14 17 23 25 24 26 27 29 27 26 26 25 25 22 19 16 15 16 12 9 13 12 10 9 10 11 11 11 11 10 10 11 13 10 12
18 14 13 13 13 15 14 14 15 19 22 22 23 23 26 29 28 24 22 24 23 21 14 15 15 16 16 16 15 12 11 11 10 9 9 11 10 9 7 8 7 9 9
13 13 13 14 12 13 10 13 16 19 19 22 21 24 27 27 29 22 20 20 17 18 13 15 16 17 16 18 18 14 15 15 13 11 10 10 11 8 9 8 8 7 8
18 15 12 11 11 11 13 16 19 16 17 19 21 24 25 26 26 21 20 17 15 16 14 13 15 17 16 15 16 16 19 17 13 12 12 11 10 8 11 9 8 8 7
14 15 15 11 14 14 14 13 14 16 18 16 20 21 18 26 22 20 21 18 15 16 15 14 15 16 16 15 15 14 17 18 15 13 12 12 11 9 10 10 8 9 8
12 19 21 17 10 10 13 13 14 14 15 16 17 16 20 27 18 17 18 19 17 14 15 13 13 14 15 14 13 11 13 15 16 11 12 13 13 10 10 9 9 8 8
10 15 19 14 10 11 13 14 14 14 15 15 17 20 23 27 17 17 17 18 18 15 14 12 12 13 14 13 12 10 11 11 11 10 10 13 14 10 12 10 9 8 8
12 17 17 14 11 12 14 13 14 15 15 14 16 20 21 22 16 17 16 16 16 16 15 13 12 13 14 13 13 12 12 13 12 10 7 10 13 11 11 11 8 8 10
20 19 10 13 13 14 13 15 13 13 15 15 17 17 19 18 20 18 14 16 15 15 15 14 13 14 15 15 14 14 14 15 15 14 9 8 10 8 9 10 11 9 9
11 12 13 12 13 15 16 14 13 13 15 17 16 16 16 17 19 18 17 15 14 14 13 14 13 12 13 13 13 14 15 15 15 15 12 10 12 9 7 7 8 12 10
10 12 13 13 12 13 15 14 14 16 14 15 16 16 16 17 19 17 17 16 17 15 14 12 13 13 13 13 12 13 14 14 14 13 12 12 11 10 8 8 4 8 12
14 12 14 11 12 12 14 16 15 15 13 13 16 16 17 16 18 16 17 16 16 15 15 14 13 13 13 14 13 13 13 14 14 13 12 11 10 10 8 8 6 5 9
18 17 14 13 14 14 14 14 17 16 14 14 14 15 16 17 18 17 17 18 16 15 17 15 14 13 13 13 13 13 13 13 13 13 12 11 10 10 9 10 8 7 7
Wind_Direction
317 314 318 316 317 318 321 302 301 312 317 314 315 317 317 316 319 318 319 321 320 314 304 305 297 299 296 293 287 287 288 286 288 294 293 290 290 302 295 295 277 259 271
307 311 316 316 313 306 309 301 312 315 319 315 316 315 315 318 320 320 317 315 313 309 309 303 299 299 295 293 296 294 293 287 289 294 293 294 289 286 287 274 270 267 262
303 306 305 306 302 307 310 313 317 318 316 311 312 312 312 314 313 312 310 307 294 290 292 297 307 296 291 289 289 285 285 291 286 296 296 291 286 283 283 282 276 271 268
300 292 295 289 294 302 295 301 306 308 310 312 314 315 314 313 312 305 300 299 302 302 303 295 285 294 300 293 285 279 278 277 280 285 284 285 287 282 281 283 277 270 267
290 303 299 295 285 268 293 302 304 308 310 310 312 313 314 315 309 310 308 306 307 305 305 303 294 285 287 291 293 288 284 281 286 282 278 281 282 282 280 281 282 273 265
298 302 295 307 293 300 309 301 305 309 310 310 310 311 312 313 308 305 303 306 308 308 306 306 304 298 293 292 289 291 288 288 283 278 275 276 275 270 271 281 285 285 286
318 299 305 291 285 291 297 295 305 307 310 311 311 311 304 305 307 306 307 313 316 314 304 297 295 296 292 296 294 282 281 281 269 269 277 281 281 280 274 273 274 277 279
318 304 316 301 300 287 278 299 303 310 309 309 312 306 303 302 307 306 307 310 317 323 311 302 295 295 296 291 297 296 288 281 281 280 282 282 282 283 275 267 269 272 271
326 312 319 306 300 294 294 304 314 311 310 305 308 302 306 316 323 316 315 312 317 318 324 316 312 306 302 296 289 288 288 284 282 277 271 273 273 272 271 273 273 275 274
337 329 313 293 296 282 285 324 312 315 314 315 314 315 323 322 320 312 310 316 320 321 317 314 313 312 304 298 293 284 277 280 272 277 278 277 275 273 269 261 267 264 265
330 329 330 318 315 316 335 313 314 311 317 315 314 319 325 327 317 324 325 321 323 319 316 316 318 314 313 311 307 302 295 292 288 287 288 290 289 287 275 270 259 261 268
326 327 317 317 328 332 318 316 313 319 314 308 316 324 326 320 315 326 317 317 318 318 318 317 307 310 312 309 310 309 307 300 298 303 306 307 302 300 295 282 262 259 266
319 318 313 313 332 321 317 318 320 314 306 314 322 322 321 320 325 314 311 317 327 327 323 324 343 327 321 328 329 325 314 321 323 312 304 305 299 293 290 284 279 272 267
316 319 325 322 320 321 318 318 315 305 313 319 324 329 331 336 336 326 331 334 334 336 344 353 340 334 347 347 355 349 347 333 327 327 319 323 324 322 320 311 312 312 279
315 309 328 316 308 311 316 316 322 320 320 321 328 332 337 340 342 334 334 336 337 340 355 346 352 6 14 8 359 359 358 353 343 341 346 346 339 331 334 342 327 327 305
309 316 306 313 315 315 311 299 304 311 318 328 334 338 338 340 341 340 338 340 343 346 354 354 4 6 9 10 3 9 18 7 7 4 357 355 351 356 355 357 18 336 341
315 326 316 309 304 305 299 300 311 319 327 333 333 338 335 335 339 342 346 350 346 344 357 4 3 1 1 2 3 11 16 7 7 19 8 4 355 19 3 354 357 338 354
313 316 305 291 294 295 301 316 321 324 330 333 329 335 326 328 338 348 351 350 352 355 2 5 0 357 356 359 3 9 18 7 10 20 19 18 12 17 5 1 4 0 7
310 298 308 310 292 302 314 316 316 317 323 326 323 326 310 331 347 349 346 348 350 351 350 355 355 353 351 356 1 9 15 8 5 15 29 27 22 13 9 2 3 6 1
300 293 295 305 292 300 304 307 312 314 317 324 327 319 324 337 350 354 350 343 343 347 348 354 354 349 347 354 358 7 7 0 2 16 30 33 27 23 20 4 358 358 354
280 271 284 289 293 289 299 307 305 305 312 320 321 317 325 336 346 343 343 339 337 345 353 354 356 354 359 0 3 7 6 6 4 13 33 34 29 18 25 13 10 7 354
268 283 283 284 287 293 295 297 308 310 312 314 317 318 323 332 325 330 330 331 338 338 344 352 354 357 359 1 5 7 10 11 12 16 24 24 25 20 22 17 7 3 6
286 289 294 287 283 286 295 303 302 305 303 307 318 320 318 318 317 320 324 324 326 333 338 342 346 353 354 355 357 358 360 3 5 5 6 5 16 5 8 2 12 9 0
290 279 292 293 284 282 291 302 296 304 310 310 315 316 317 315 316 316 318 318 320 328 330 337 334 339 344 346 349 351 351 353 355 356 354 347 0 357 357 358 14 13 347
304 293 295 289 284 283 286 295 300 302 303 304 304 308 309 310 311 310 308 307 310 317 323 327 329 331 333 334 340 344 345 346 346 348 349 344 351 351 353 348 7 350 340
283 283 280 274 274 276 281 283 287 295 296 296 300 303 306 309 313 314 312 313 312 318 319 320 326 326 328 330 336 338 341 343 345 344 344 342 347 350 355 351 357 345 349